User: anonymous   Login
Location: Unspecified
(0.0000°N, 0.0000°E)
Time: 07:09:17
(UTC+00:00)
Language:

Cubesat XI-IV - Orbit

View from above orbital plane
View from above orbital plane
View from above satellite
View from above satellite

Ground track
Ground track

The orbit data is extracted from the following two-line orbital elements,

1 27848U 03031J   17178.49120350 +.00000027 +00000-0 +32200-4 0  9994
2 27848 098.6982 187.6111 0009048 334.1333 025.9391 14.21657887725630
Epoch (UTC): 27 June 2017 11:47:19
Eccentricity: 0.0009048
inclination: 98.6982°
perigee height: 813 km
apogee height: 826 km
right ascension of ascending node: 187.6111°
argument of perigee: 334.1333°
revolutions per day: 14.21657887
mean anomaly at epoch: 25.9391°
orbit number at epoch: 72563

The dashed part of the orbit path shows where the satellite is in the earth's shadow,  

DLR